Dewpoint
50 50 50 49 49 50 51 51 50 50 50 50 51 51 51 51 51 51 51 51 50 50 50 51 50 50 50 50 50 51 51 45 43 42 40 37 47 55 55 55 56 57 56 40 30 28 27 27 26 26 24 26 26 29 29 29 28 24 22 17 15 15 15 17 17 17 18 17 17 18 18 17 17 18 19 25 23 22 54 46 56 59 58 58 60 60 63 66
49 49 50 50 51 50 50 49 49 50 51 50 50 51 51 51 51 52 51 51 51 50 50 50 50 50 51 50 51 51 48 43 42 42 41 44 50 54 56 55 57 57 52 29 30 29 26 26 26 25 24 24 26 26 30 26 26 22 22 19 14 15 16 18 18 18 17 17 18 17 18 17 17 17 20 18 22 34 52 51 57 58 59 60 60 62 65 66
50 50 50 50 50 50 50 50 50 50 50 51 50 50 51 51 51 52 52 51 51 51 51 49 50 50 50 50 51 51 45 42 41 38 40 55 52 56 58 57 56 54 31 29 32 30 28 27 27 25 24 23 26 24 27 25 25 24 22 18 16 16 16 17 18 18 18 18 17 17 17 18 17 17 18 17 18 35 48 53 56 57 58 59 60 64 65 65
49 50 50 50 49 50 50 50 50 50 50 50 50 51 50 50 50 52 52 51 51 51 51 50 50 50 50 50 51 48 43 42 31 36 45 54 56 58 57 56 55 48 36 35 34 32 31 29 27 25 23 23 23 28 26 25 20 16 21 20 17 17 16 17 18 18 19 18 18 17 17 16 17 17 19 21 20 19 27 54 53 57 58 59 61 63 65 65
49 49 49 49 50 50 50 49 49 49 49 49 50 51 51 51 50 50 50 50 51 51 51 51 49 50 50 50 51 44 42 9 33 45 46 56 56 56 56 55 55 38 36 35 29 28 24 23 22 23 22 20 23 22 27 28 24 23 17 16 16 16 15 17 17 18 18 20 18 18 16 16 18 18 17 19 18 21 22 43 54 58 59 59 61 63 64 64
50 50 50 50 49 49 49 49 50 50 50 50 50 50 50 51 51 50 50 50 50 51 51 51 50 49 50 51 46 43 31 7 34 42 53 55 55 55 56 55 55 41 34 29 27 25 17 16 18 19 19 20 21 21 24 26 26 23 22 21 20 16 13 15 15 17 17 17 17 17 17 18 18 17 17 18 18 19 22 38 54 59 59 59 61 62 63 63
49 49 49 49 49 50 50 51 51 50 50 50 51 50 50 50 50 51 50 50 51 51 50 50 49 49 49 49 43 41 31 26 36 38 55 57 57 56 56 55 56 37 32 29 26 20 18 16 17 19 19 19 18 19 19 19 22 23 23 26 26 26 21 14 11 11 11 14 16 17 19 17 16 15 17 16 18 19 20 24 57 58 59 59 60 61 62 63
50 50 50 49 49 50 50 50 50 50 50 50 50 50 51 51 50 50 50 51 50 51 50 50 49 48 49 43 40 36 35 26 28 35 56 58 56 55 55 50 47 37 34 30 27 23 18 16 15 20 18 15 18 21 21 17 21 21 22 25 26 27 25 21 14 12 11 10 12 14 15 16 17 16 17 16 16 19 21 23 56 59 60 60 60 61 62 62
49 49 49 49 49 49 50 50 49 49 49 50 50 50 50 50 50 50 50 50 50 50 49 49 50 48 48 43 39 28 15 32 39 41 54 53 49 49 47 44 42 35 32 24 28 23 18 16 18 18 15 15 17 15 16 21 14 20 21 22 22 23 24 23 19 15 12 10 10 11 13 15 16 17 16 17 17 17 21 24 40 60 60 60 60 60 61 62
48 49 49 49 49 49 49 49 49 50 50 50 50 50 50 50 49 49 50 50 50 49 50 49 49 48 44 41 35 19 18 33 47 51 51 47 47 46 42 43 34 31 24 23 22 19 17 16 17 19 18 16 17 15 16 17 16 19 18 19 19 19 20 21 21 21 19 16 14 10 10 12 15 15 15 23 25 18 18 26 45 59 59 60 60 60 61 61
48 48 48 48 49 49 49 49 49 49 49 50 50 50 50 50 50 50 50 50 50 50 50 49 49 48 42 42 33 19 21 34 37 33 33 33 33 35 37 38 35 30 24 24 23 22 19 18 21 16 18 15 14 14 17 17 18 18 18 18 18 19 20 20 20 20 19 18 16 11 9 11 13 14 14 16 29 37 28 27 56 58 59 59 60 60 60 61
48 48 48 48 48 49 49 49 49 49 50 50 50 50 50 50 51 51 50 51 50 50 50 50 50 46 43 41 37 28 33 38 38 36 35 35 35 34 34 33 33 29 26 24 24 22 20 18 19 17 14 16 13 16 13 17 16 18 20 17 18 19 19 20 19 20 19 18 17 15 10 9 9 11 13 15 19 36 38 35 53 58 59 59 60 60 60 60
47 48 48 48 48 48 48 48 49 49 50 50 50 50 50 51 51 51 51 51 50 51 51 50 49 48 44 37 38 38 37 37 37 38 38 37 36 36 35 33 28 27 24 24 25 25 22 19 18 16 16 16 16 13 15 16 16 19 18 20 18 18 18 19 20 19 18 18 16 13 8 8 8 9 14 20 27 37 41 44 54 56 58 59 59 60 60 60
48 47 48 48 48 48 48 48 49 49 49 49 50 50 51 51 52 52 51 51 51 51 51 51 48 44 40 37 37 38 38 38 38 38 37 39 36 34 33 31 28 27 27 26 25 25 22 19 19 17 19 15 13 19 15 15 19 15 18 19 18 17 15 19 20 19 17 18 16 13 10 9 10 11 16 20 29 34 36 52 56 57 57 58 59 59 60 60
47 47 47 47 47 48 48 48 49 49 49 50 50 50 51 51 52 52 52 52 51 51 50 50 46 41 37 37 39 40 50 49 45 44 39 36 34 33 31 31 27 28 27 26 26 27 23 22 19 17 15 21 17 16 14 19 20 20 14 11 16 16 15 17 21 19 16 17 15 12 11 11 10 12 18 21 23 37 30 50 57 57 58 58 59 59 60 60
47 47 47 47 47 47 47 48 49 49 49 50 50 50 51 51 52 53 52 51 51 51 47 45 44 42 37 34 34 45 38 40 33 38 42 39 36 30 31 30 25 19 20 22 25 25 23 20 18 16 16 16 15 13 14 15 15 20 14 12 14 18 18 18 19 18 16 14 14 11 10 11 11 12 14 21 23 25 29 47 57 58 58 59 59 60 60 60
47 47 47 47 47 47 47 48 48 49 49 50 50 50 50 51 52 52 52 52 51 51 44 40 44 42 31 34 39 35 33 33 35 33 35 40 36 34 30 21 20 17 16 15 21 20 20 19 23 22 17 15 14 14 12 14 14 15 19 14 16 15 18 17 20 21 16 14 12 12 10 10 10 12 12 18 20 20 27 45 56 58 58 59 59 60 60 60
47 47 47 46 47 47 47 48 48 49 49 50 49 50 48 50 53 51 51 51 50 48 47 45 43 39 34 36 32 32 36 35 35 34 32 35 37 36 33 25 19 16 15 11 12 14 17 18 17 17 19 17 15 17 12 8 10 13 15 15 14 18 19 19 19 20 21 19 12 12 11 11 11 11 11 20 26 27 28 46 55 57 58 59 59 60 60 60
48 48 48 47 47 46 47 48 48 49 49 49 49 49 50 50 46 45 45 45 37 34 31 34 34 26 21 25 33 34 35 36 35 32 29 27 34 34 28 27 19 16 15 11 10 10 11 15 16 16 14 15 14 14 14 10 14 14 16 15 16 17 16 17 20 21 21 20 19 15 12 11 12 12 13 13 19 28 28 44 54 57 58 59 59 60 60 60
48 48 47 46 46 47 47 48 48 49 49 48 46 45 40 37 35 33 38 39 36 34 33 33 36 34 35 35 34 36 37 35 32 31 30 23 30 28 28 20 18 16 15 17 13 14 16 12 10 11 13 15 15 14 13 14 13 13 14 15 15 15 15 16 16 17 18 17 17 16 14 13 12 12 14 14 14 20 27 40 51 56 58 58 59 59 60 60
47 47 47 47 47 47 47 48 48 49 49 47 45 41 35 35 32 31 35 35 35 36 35 35 35 35 35 36 36 36 33 32 32 31 31 35 23 20 19 18 17 18 15 13 13 19 11 11 10 9 10 14 15 15 16 14 14 13 12 12 12 13 13 14 14 15 15 14 14 14 13 13 12 12 14 14 15 12 18 30 47 54 57 58 59 59 59 60
47 48 47 47 47 47 47 48 48 49 49 45 43 41 42 37 37 38 36 33 35 35 36 35 36 35 36 36 37 36 34 32 30 29 31 29 25 21 19 16 16 14 18 18 15 17 15 14 11 11 11 12 14 14 15 14 14 14 13 13 12 12 12 12 12 13 13 12 12 13 13 13 15 15 14 14 14 14 14 28 40 51 56 58 59 59 59 60
47 47 48 47 47 47 47 48 49 49 43 42 41 42 38 39 41 42 38 34 34 35 35 35 34 34 34 37 36 34 32 31 29 29 29 29 21 22 19 15 16 15 16 17 15 16 15 14 15 14 13 12 12 13 13 13 13 13 13 13 12 13 12 11 11 11 11 12 11 12 11 13 14 16 18 17 16 15 22 31 36 45 54 58 59 59 59 59
47 47 47 47 47 48 48 48 48 44 42 43 43 41 43 43 42 40 37 32 32 35 34 34 35 35 34 32 34 33 32 31 30 29 33 27 23 21 20 18 17 18 16 16 16 15 15 15 13 13 12 11 11 11 12 13 12 13 12 11 11 11 11 12 12 12 11 11 11 10 10 10 12 12 13 16 19 19 21 30 38 40 49 56 59 59 59 59
47 47 47 48 48 48 48 48 42 43 44 43 44 45 45 45 44 41 36 30 30 33 37 34 35 34 34 35 34 32 32 31 29 29 29 26 22 20 20 21 19 18 18 17 15 15 15 16 18 15 11 10 11 10 11 12 12 12 12 12 11 11 11 11 11 10 10 11 10 8 7 8 12 14 12 14 18 16 16 18 34 40 45 50 55 58 59 60
47 47 48 48 48 48 48 41 40 43 43 41 42 45 46 46 44 41 35 27 23 26 31 20 33 21 30 25 34 32 30 24 26 27 29 38 38 26 26 19 19 17 18 17 16 17 15 17 13 12 12 10 8 7 8 11 11 13 12 12 12 11 11 11 10 9 9 8 9 9 6 7 17 14 16 17 16 15 15 14 23 37 44 48 53 58 59 59
47 47 48 48 48 48 42 37 42 43 39 41 43 46 47 46 45 40 29 19 18 28 27 24 22 23 24 32 35 34 28 28 33 33 33 38 34 34 29 25 24 21 20 23 16 13 14 13 13 12 11 10 8 6 6 6 9 9 10 11 12 11 11 10 10 10 9 12 10 9 8 7 6 13 16 16 18 15 14 14 18 29 38 44 50 57 59 59
47 48 48 49 48 48 44 45 43 41 42 43 46 47 47 46 41 37 25 10 14 29 29 30 23 25 34 34 35 33 33 34 31 32 38 38 37 34 31 28 29 29 28 23 14 16 18 16 10 9 10 7 6 6 5 4 3 4 5 7 8 10 11 11 10 10 9 9 8 9 8 6 6 8 14 13 12 14 15 14 14 23 32 38 45 55 59 60
47 48 48 49 48 48 46 44 42 41 44 46 46 46 47 43 37 29 19 13 27 29 33 32 28 32 33 35 34 35 34 35 31 34 38 38 42 40 37 36 32 31 30 28 23 22 21 19 17 17 15 14 12 9 7 5 5 7 8 9 10 10 10 10 9 9 10 9 8 8 8 5 4 12 10 12 12 12 13 14 13 20 25 32 40 50 57 60
48 48 49 49 47 43 43 46 43 44 45 46 46 46 46 39 32 22 15 15 30 26 34 34 31 30 34 33 34 35 33 34 35 36 36 35 41 40 36 41 35 32 31 30 27 25 24 27 28 22 18 14 13 13 12 11 11 11 10 8 6 4 6 11 12 10 10 9 9 8 8 6 4 9 9 10 15 17 16 16 15 16 22 26 34 45 54 58
48 48 49 49 44 43 43 40 43 46 46 47 47 44 39 30 22 16 16 23 31 31 33 34 30 34 33 33 32 34 32 33 33 35 34 35 36 38 35 31 36 30 29 26 25 24 23 22 22 20 23 19 15 14 14 12 12 10 6 6 5 7 14 11 12 13 9 8 9 10 9 8 6 7 11 15 19 18 18 15 15 15 16 21 29 40 50 56
48 48 49 48 46 46 39 39 43 47 47 47 44 37 29 16 23 20 16 30 21 26 29 30 32 33 34 35 33 32 30 32 35 34 32 31 31 29 30 23 27 20 22 23 23 23 21 21 21 20 25 19 17 14 14 12 10 8 6 11 7 7 10 6 10 11 9 6 10 9 9 8 8 8 11 10 12 12 15 15 15 15 14 18 24 32 44 53
48 48 49 48 49 44 45 44 46 46 47 45 39 31 23 14 13 19 25 26 18 29 28 33 32 34 34 32 28 31 33 30 34 34 34 33 31 30 33 29 30 25 20 21 19 19 20 21 20 19 19 23 16 14 13 12 9 7 5 9 7 3 5 5 12 14 14 13 10 9 11 6 9 11 11 10 10 9 10 14 15 15 16 17 23 29 39 50
48 48 45 46 48 47 47 49 47 47 44 43 35 29 21 17 17 38 28 25 25 33 34 33 34 34 33 27 30 33 28 32 33 32 32 29 27 25 25 31 31 25 26 24 19 20 13 16 17 19 17 19 17 16 14 10 13 6 8 12 17 15 12 8 11 8 10 12 10 10 9 12 8 17 18 11 10 9 8 9 11 15 15 16 20 29 37 48
47 46 44 44 46 48 47 47 46 46 41 37 29 21 18 17 22 21 20 23 29 33 32 34 32 31 29 31 33 34 30 26 33 31 30 28 24 24 24 25 31 28 27 20 24 20 20 18 19 19 17 20 19 19 14 10 9 9 7 10 8 7 20 7 13 17 17 15 15 16 13 20 11 23 18 17 14 12 17 21 24 19 18 17 19 30 38 48
44 43 44 43 46 47 47 48 46 43 40 35 23 21 19 22 20 23 25 32 33 29 30 32 32 25 26 27 30 30 34 28 30 30 27 29 28 27 28 28 29 29 26 21 22 20 21 19 23 23 21 20 20 19 15 9 8 17 4 6 6 15 14 13 14 20 21 17 14 15 19 22 24 19 17 13 12 12 14 18 19 19 19 21 20 28 39 48
42 44 42 44 46 48 48 48 47 42 37 31 23 22 24 28 29 31 38 32 31 32 28 28 26 27 28 27 27 28 30 32 30 26 24 27 24 28 29 28 31 30 28 26 22 23 19 19 23 22 20 21 19 18 15 15 11 11 10 14 19 24 24 17 10 10 14 12 13 18 14 16 15 15 30 16 16 17 18 17 16 20 20 20 21 23 35 46
42 42 45 46 45 47 47 46 43 39 34 28 26 35 31 27 34 32 34 34 32 32 29 27 30 30 28 26 27 28 31 27 23 27 26 26 22 27 28 28 30 29 29 28 24 26 24 19 21 22 22 22 24 22 18 16 16 9 6 20 15 17 15 19 14 8 9 8 8 15 18 18 15 17 19 15 18 17 18 21 24 25 25 24 21 21 30 44
42 41 38 42 45 46 46 44 40 36 29 26 24 27 33 32 35 33 35 34 34 29 28 30 29 30 28 25 28 30 30 28 29 25 24 25 20 25 25 25 25 29 29 28 26 28 27 19 20 21 19 23 21 18 16 14 13 15 14 14 20 19 20 17 13 19 18 9 10 14 16 14 20 16 19 21 23 26 26 28 30 31 34 36 32 26 27 45
39 37 37 43 46 48 48 44 38 33 26 26 25 25 32 32 34 36 35 34 29 29 27 30 33 30 31 30 31 30 31 30 29 29 28 27 21 26 24 25 25 29 30 28 27 29 27 27 17 21 23 22 17 19 18 15 12 12 12 15 23 20 22 20 28 21 17 9 10 10 10 16 21 30 24 26 30 30 30 33 36 38 39 40 38 32 29 46
40 35 37 44 46 46 44 39 32 29 29 29 30 30 32 32 34 34 35 38 34 36 32 31 32 31 31 29 29 33 31 30 30 26 27 27 25 21 28 26 23 31 29 28 27 36 27 26 21 23 22 21 20 21 18 16 15 14 14 12 14 15 11 11 14 23 20 17 15 12 12 18 25 34 32 32 33 34 36 37 38 39 40 41 41 39 32 47
35 31 36 44 46 45 41 34 29 31 30 30 29 31 31 36 33 33 31 35 35 32 39 35 35 34 33 32 31 32 31 29 29 28 28 27 28 24 30 29 27 30 29 27 28 38 34 31 28 23 23 22 22 23 24 24 24 22 12 12 11 18 22 17 11 17 22 21 21 21 15 20 30 35 31 29 31 34 35 39 39 39 40 40 41 42 38 46
34 33 40 45 46 43 36 28 32 30 27 30 35 33 34 33 32 32 29 30 29 35 36 35 34 34 33 33 33 33 33 31 30 28 28 29 29 30 32 33 30 30 35 35 36 37 36 29 25 26 26 26 26 27 27 27 25 25 24 20 14 14 15 16 20 24 18 22 19 18 17 20 31 32 28 28 30 33 35 37 38 39 40 40 40 42 41 46
37 36 38 44 46 42 33 26 28 28 30 33 31 30 33 32 31 28 27 30 28 29 31 33 34 34 33 35 34 32 34 29 30 31 29 30 29 31 36 35 30 32 33 33 31 37 28 31 28 24 22 17 19 20 22 26 26 24 18 18 17 15 16 23 29 31 20 24 20 18 16 16 26 27 27 28 30 31 32 34 39 38 38 39 39 41 44 46
38 37 38 40 45 42 33 29 30 26 29 29 29 29 30 29 29 29 29 29 32 30 30 29 35 32 30 33 32 34 34 33 30 32 30 30 31 32 41 38 37 34 29 36 37 37 32 30 27 22 17 8 6 7 11 15 21 22 20 16 17 15 19 22 19 22 17 24 23 19 19 23 24 25 25 27 29 32 33 34 37 38 38 38 40 41 45 45
34 27 32 31 33 36 38 38 34 29 26 27 26 28 29 27 29 30 31 30 32 30 31 32 38 36 32 32 29 29 28 34 32 31 31 31 31 32 38 35 37 36 35 38 40 36 30 32 31 28 25 20 21 21 22 28 26 14 16 15 17 18 18 21 26 23 19 22 22 24 25 24 24 23 24 25 28 30 33 35 36 38 38 39 41 43 46 46
34 27 27 27 29 32 31 31 30 29 27 30 25 28 26 28 28 29 30 27 31 30 31 32 32 29 29 29 28 28 31 34 34 32 31 31 31 31 35 36 37 38 40 40 39 37 33 30 30 30 29 28 27 27 27 29 28 28 24 16 15 18 21 22 21 21 28 21 20 25 27 26 23 23 24 25 26 29 34 36 37 38 39 40 42 46 50 50
25 27 32 31 26 26 27 27 31 31 32 31 28 30 28 28 28 26 29 31 30 31 26 31 30 29 30 30 29 29 30 30 32 28 30 28 28 29 30 32 34 35 41 40 37 35 32 27 29 29 28 30 31 28 27 29 30 29 28 21 17 18 20 21 22 23 27 21 19 21 27 26 24 24 25 25 28 30 35 38 39 40 39 42 47 50 52 52
32 32 34 36 28 30 28 30 33 32 31 31 29 30 28 28 28 27 28 28 29 29 29 23 25 28 29 30 31 31 31 30 28 29 28 27 26 27 28 33 37 40 41 41 38 38 34 28 30 33 30 31 34 34 34 34 33 32 31 27 19 19 20 21 21 25 27 25 26 26 25 25 25 25 26 27 30 35 39 40 39 39 42 47 48 50 53 54
34 33 31 35 34 33 32 31 30 29 27 33 26 28 29 29 28 29 30 28 26 27 29 25 27 29 29 30 29 29 30 31 32 28 28 27 26 28 30 32 35 39 39 37 38 40 33 28 32 33 31 30 32 35 35 35 33 30 32 32 26 21 22 23 24 26 29 26 26 27 26 24 25 26 27 30 37 41 40 35 37 41 44 46 48 50 53 55
39 38 37 35 31 31 33 30 29 29 25 27 28 29 31 30 29 31 30 30 29 26 28 27 28 29 30 28 28 27 29 29 27 27 28 27 25 27 30 32 33 35 38 37 37 37 34 30 35 32 28 26 32 34 33 34 32 31 29 30 29 23 22 24 23 26 24 23 25 26 24 23 23 25 37 39 38 36 35 36 39 41 41 45 47 50 53 55
41 41 39 35 30 34 28 30 29 25 23 28 30 30 29 30 31 31 28 30 31 30 30 29 30 30 27 27 26 27 27 27 26 27 27 27 27 27 27 28 29 33 37 37 37 34 34 32 26 27 27 25 30 34 32 32 28 23 23 27 29 26 24 27 24 27 27 26 24 23 20 21 23 30 34 35 36 35 36 36 39 39 40 44 48 50 53 56